Regional Weather Roundup
Issued by NWS

Home | Current Version | Previous Version | Text Only | Print | Product List | Glossary On
Versions: 1 2 3 4 5 6 7 8 9 10 11 12 13 14 15 16 17 18 19 20 21 22 23 24 25 26 27 28 29 30 31 32 33 34 35 36 37 38 39 40 41 42 43 44 45 46 47 48 49 50
000
ASUS44 KBMX 270110
RWRAL

ALABAMA REGIONAL WEATHER ROUNDUP
NATIONAL WEATHER SERVICE BIRMINGHAM AL
800 PM CDT THU APR 26 2018

NOTE: "FAIR" INDICATES FEW OR NO CLOUDS BELOW 12,000 FEET
WITH NO SIGNIFICANT WEATHER AND/OR OBSTRUCTIONS TO VISIBILITY.

THE REMARK "TC" DENOTES TEMPERATURE IN DEGREES CELSIUS.

ALZ001>011-014-016>018-020-270200-
NORTH ALABAMA

CITY           SKY/WX    TMP DP  RH WIND       PRES   REMARKS
MUSCLE SHOALS  FAIR      57  52  83 N5        29.88R
HUNTSVILLE     MOCLDY    56  54  93 N6        29.86S
DECATUR        MOCLDY    55  53  93 N8        29.87S
HALEYVILLE     MOCLDY    53  53 100 N3        29.88R
GADSDEN        MOCLDY    57  57 100 W5        29.84R
$$

ALZ012-013-022-023-030>036-040>044-270200-
WEST CENTRAL ALABAMA

CITY           SKY/WX    TMP DP  RH WIND       PRES   REMARKS
TUSCALOOSA     MOCLDY    61  55  81 CALM      29.86R
DEMOPOLIS      CLOUDY    62  52  70 W7        29.87R
$$

ALZ015-024>026-033>036-041>044-270200-
CENTRAL ALABAMA

CITY           SKY/WX    TMP DP  RH WIND       PRES   REMARKS
BIRMINGHAM     RAIN      59  56  89 NW7       29.86R FOG
MONTGOMERY     CLOUDY    64  52  64 NW10      29.85R
SHELBY CO ARPT FAIR      58  53  84 CALM      29.85R
MAXWELL AFB    CLOUDY    61  49  65 NW10      29.84R
GREENVILLE     FAIR      62  48  60 W7        29.86R
SELMA          CLOUDY    63  52  67 W3        29.86R
PRATTVILLE     CLOUDY    61  52  71 W6        29.85R
BESSEMER       FAIR      57  53  86 W6        29.86R
TALLADEGA      CLOUDY    60  55  82 NW6       29.84R
PELL CITY      MOCLDY    59  59 100 CALM      29.84S
MARION         CLOUDY    60  53  77 W3        29.86R
SYLACAUGA      CLOUDY    60  54  80 W7        29.85R
$$

ALZ019-021-028-029-037-038-045>048-270200-
EAST CENTRAL ALABAMA

CITY           SKY/WX    TMP DP  RH WIND       PRES   REMARKS
ANNISTON       MOCLDY    59  54  83 W7        29.83R
ALEXANDER CITY FAIR      59  55  87 W5        29.85R
AUBURN         MOCLDY    61  53  75 W3        29.85R
$$

ALZ051>064-270200-
SOUTHWEST ALABAMA

CITY           SKY/WX    TMP DP  RH WIND       PRES   REMARKS
MOBILE         FAIR      64  51  62 NW7       29.89R
BROOKLEY FIELD FAIR      67  52  58 NW18      29.89R
EVERGREEN      FAIR      63  49  60 VRB5      29.87R
$$

ALZ049-050-065>069-270200-
SOUTHEAST ALABAMA

CITY           SKY/WX    TMP DP  RH WIND       PRES   REMARKS
DOTHAN         FAIR      65  56  72 NW9       29.86R
OZARK          FAIR      64  55  72 NW8       29.84R
TROY           FAIR      61  53  75 W6        29.85R
EUFAULA        FAIR      60  59  96 CALM      29.83R
$$



USA.gov is the U.S. government's official web portal to all federal, state and local government web resources and services.